Weather History for EGPH - January, 2012

Change the Weather History Date:

Saturday, January 7, 2012

  Actual Average (WUND) Record (WUND)
Temperature  
Mean Temperature 44 °F -  
Max Temperature 46 °F 43 °F - (-1)
Min Temperature 42 °F 33 °F - (-1)
Degree Days  
Heating Degree Days 21    
Moisture  
Dew Point 37 °F    
Average Humidity 75    
Maximum Humidity 81    
Minimum Humidity 66    
Precipitation  
Precipitation 0.00 in 0.07 in - ()
Sea Level Pressure  
Sea Level Pressure 29.93 in    
Wind  
Wind Speed 14 mph ()    
Max Wind Speed 20 mph    
Max Gust Speed 33 mph    
Visibility 6.2 miles    
Events Rain    
Averages and records for this station are not official NWS values.
T = Trace of Precipitation, MM = Missing Value Source: Averaged Metar Reports

Daily Weather History Graph

Daily Weather History Graph

Search for Another Location

Airport or City:

Trip Planner

Search our weather history database for the weather conditions in past years. The results will help you decide how hot, cold, wet, or windy it might be!

Date:

Astronomy

Jan. 07, 2012 Rise Set
Actual Time 8:41 AM GMT 3:57 PM GMT
Civil Twilight 7:55 AM GMT 4:43 PM GMT
Nautical Twilight 7:07 AM GMT 5:31 PM GMT
Astronomical Twilight 6:22 AM GMT 6:16 PM GMT
Moon 2:23 PM GMT (1/7) 7:06 AM GMT (1/7)
Length of Visible Light 8h 47m
Length of Day
7h 15m
Waxing Gibbous, 97% of the Moon is Illuminated
Jan 7
Waxing Gibbous
Jan 9
Full
Jan 16
Last Quarter
Jan 23
New
Jan 31
First Quarter

Hourly Weather History & Observations

Time (GMT) Temp. Windchill Dew Point Humidity Pressure Visibility Wind Dir Wind Speed Gust Speed Precip Events Conditions
12:20 AM 46.4 °F 39.5 °F 37.4 °F 71% 29.80 in 6.2 mi West 17.3 mph - N/A   Mostly Cloudy
12:50 AM 44.6 °F 38.1 °F 39.2 °F 81% 29.80 in 6.2 mi West 13.8 mph - N/A   Mostly Cloudy
1:20 AM 44.6 °F 38.1 °F 37.4 °F 76% 29.80 in 6.2 mi West 13.8 mph - N/A   Mostly Cloudy
1:50 AM 44.6 °F 38.1 °F 37.4 °F 76% 29.83 in 6.2 mi West 13.8 mph - N/A   Mostly Cloudy
2:20 AM 44.6 °F 37.4 °F 37.4 °F 76% 29.80 in 6.2 mi West 16.1 mph - N/A   Mostly Cloudy
2:50 AM 44.6 °F 38.1 °F 39.2 °F 81% 29.83 in 6.2 mi West 13.8 mph - N/A Rain Light Rain
3:20 AM 44.6 °F 38.1 °F 37.4 °F 76% 29.83 in 6.2 mi West 13.8 mph - N/A   Overcast
3:50 AM 44.6 °F 37.8 °F 37.4 °F 76% 29.83 in 6.2 mi West 15.0 mph - N/A   Scattered Clouds
4:20 AM 44.6 °F 37.2 °F 37.4 °F 76% 29.83 in 6.2 mi West 17.3 mph - N/A   Scattered Clouds
4:50 AM 44.6 °F 37.4 °F 37.4 °F 76% 29.83 in 6.2 mi West 16.1 mph - N/A   Mostly Cloudy
5:20 AM 44.6 °F 37.4 °F 35.6 °F 71% 29.83 in 6.2 mi WSW 16.1 mph - N/A   Mostly Cloudy
5:50 AM 44.6 °F 37.8 °F 35.6 °F 71% 29.83 in 6.2 mi West 15.0 mph - N/A   Scattered Clouds
6:20 AM 42.8 °F 35.8 °F 35.6 °F 76% 29.86 in 6.2 mi West 13.8 mph - N/A   Scattered Clouds
6:50 AM 42.8 °F 35.8 °F 35.6 °F 76% 29.86 in 6.2 mi West 13.8 mph - N/A   Partly Cloudy
7:20 AM 42.8 °F 35.4 °F 33.8 °F 70% 29.86 in 6.2 mi West 15.0 mph - N/A   Unknown
7:50 AM 42.8 °F 35.4 °F 33.8 °F 70% 29.89 in 6.2 mi West 15.0 mph - N/A   Unknown
8:20 AM 42.8 °F 34.8 °F 35.6 °F 76% 29.89 in - West 17.3 mph - N/A   Clear
8:50 AM 42.8 °F 35.1 °F 35.6 °F 76% 29.92 in 6.2 mi West 16.1 mph - N/A   Partly Cloudy
9:20 AM 42.8 °F 34.8 °F 35.6 °F 76% 29.92 in 6.2 mi West 17.3 mph - N/A   Partly Cloudy
9:50 AM 42.8 °F 34.8 °F 35.6 °F 76% 29.92 in 6.2 mi West 17.3 mph - N/A   Partly Cloudy
10:20 AM 44.6 °F 37.2 °F 35.6 °F 71% 29.95 in 6.2 mi West 17.3 mph 31.1 mph N/A   Partly Cloudy
10:50 AM 44.6 °F 37.4 °F 35.6 °F 71% 29.95 in 6.2 mi West 16.1 mph - N/A   Partly Cloudy
11:20 AM 44.6 °F 37.4 °F 35.6 °F 71% 29.95 in 6.2 mi West 16.1 mph - N/A   Partly Cloudy
11:50 AM 44.6 °F 37.2 °F 35.6 °F 71% 29.95 in 6.2 mi West 17.3 mph 28.8 mph N/A   Partly Cloudy
12:20 PM 46.4 °F 39.8 °F 37.4 °F 71% 29.95 in 6.2 mi West 16.1 mph - N/A   Partly Cloudy
12:50 PM 46.4 °F 39.0 °F 35.6 °F 66% 29.95 in 6.2 mi West 19.6 mph 33.4 mph N/A   Partly Cloudy
1:20 PM 46.4 °F 39.5 °F 35.6 °F 66% 29.95 in 6.2 mi West 17.3 mph - N/A   Partly Cloudy
1:50 PM 46.4 °F 40.1 °F 37.4 °F 71% 29.95 in 6.2 mi West 15.0 mph - N/A   Scattered Clouds
2:20 PM 46.4 °F 39.8 °F 37.4 °F 71% 29.95 in 6.2 mi West 16.1 mph - N/A   Scattered Clouds
2:50 PM 44.6 °F 37.4 °F 37.4 °F 76% 29.95 in 6.2 mi WSW 16.1 mph - N/A   Scattered Clouds
3:20 PM 44.6 °F 38.1 °F 37.4 °F 76% 29.95 in 6.2 mi West 13.8 mph - N/A   Scattered Clouds
3:50 PM 44.6 °F 37.8 °F 37.4 °F 76% 29.98 in 6.2 mi West 15.0 mph - N/A   Scattered Clouds
4:20 PM 44.6 °F 39.2 °F 37.4 °F 76% 29.98 in 6.2 mi West 10.4 mph - N/A   Scattered Clouds
4:50 PM 44.6 °F 39.2 °F 37.4 °F 76% 29.98 in 6.2 mi West 10.4 mph - N/A   Scattered Clouds
5:20 PM 44.6 °F 38.4 °F 37.4 °F 76% 30.01 in 6.2 mi West 12.7 mph - N/A   Partly Cloudy
5:50 PM 44.6 °F 38.1 °F 37.4 °F 76% 30.01 in 6.2 mi West 13.8 mph - N/A   Partly Cloudy
6:20 PM 44.6 °F 38.1 °F 37.4 °F 76% 30.01 in 6.2 mi West 13.8 mph - N/A   Scattered Clouds
6:50 PM 44.6 °F 37.8 °F 37.4 °F 76% 30.01 in 6.2 mi West 15.0 mph - N/A   Partly Cloudy
7:20 PM 42.8 °F 36.2 °F 37.4 °F 81% 30.01 in 6.2 mi WSW 12.7 mph - N/A   Partly Cloudy
7:50 PM 44.6 °F 38.4 °F 37.4 °F 76% 30.04 in 6.2 mi SW 12.7 mph - N/A   Scattered Clouds
8:20 PM 42.8 °F 36.6 °F 37.4 °F 81% 30.04 in 6.2 mi WSW 11.5 mph - N/A   Scattered Clouds
8:50 PM 42.8 °F 35.4 °F 37.4 °F 81% 30.04 in 6.2 mi WSW 15.0 mph - N/A   Mostly Cloudy
9:20 PM 44.6 °F 38.1 °F 37.4 °F 76% 30.04 in 6.2 mi WSW 13.8 mph - N/A   Mostly Cloudy
9:50 PM 44.6 °F 38.8 °F 37.4 °F 76% 30.06 in 6.2 mi WSW 11.5 mph - N/A   Mostly Cloudy
10:20 PM 44.6 °F 38.8 °F 37.4 °F 76% 30.06 in 6.2 mi WSW 11.5 mph - N/A   Mostly Cloudy
10:50 PM 44.6 °F 38.4 °F 37.4 °F 76% 30.06 in 6.2 mi WSW 12.7 mph - N/A   Mostly Cloudy
11:20 PM 42.8 °F 37.0 °F 35.6 °F 76% 30.06 in 6.2 mi WSW 10.4 mph - N/A   Mostly Cloudy
11:50 PM 44.6 °F 38.8 °F 35.6 °F 71% 30.06 in 6.2 mi WSW 11.5 mph - N/A   Mostly Cloudy